Regional Weather Roundup
Issued by NWS

Home | Current Version | Previous Version | Text Only | Print | Product List | Glossary On
Versions: 1 2 3 4 5 6 7 8 9 10 11 12 13 14 15 16 17 18 19 20 21 22 23 24 25 26 27
000
ASUS45 KBOU 112010
RWRCO

WEATHER ROUNDUP FOR COLORADO
NATIONAL WEATHER SERVICE DENVER/BOULDER CO
100 PM MST MON DEC 11 2017

NOTE: "FAIR" INDICATES FEW OR NO CLOUDS BELOW 12000 FEET WITH NO
SIGNIFICANT WEATHER AND/OR OBSTRUCTIONS TO VISIBILITY.

COZ001>005-013-030-031-112100-
...NORTHWEST COLORADO...

CITY           SKY/WX    TMP DP  RH WIND       PRES   REMARKS
CRAIG          FAIR      32  13  45 CALM      30.51F
HAYDEN         FAIR      33  16  49 CALM      30.52F
MEEKER         FAIR      48   1  14 SW6       30.49F
RABBIT EARS PA FAIR      30   7  37 W10G22    30.53F WCI  21
STEAMBOAT SPGS FAIR      34  13  42 CALM      30.51F
WALDEN         FAIR      34  10  37 NW3       30.49S
$$

COZ006>008-011-112100-
...WEST CENTRAL VALLEYS...

CITY           SKY/WX    TMP DP  RH WIND       PRES   REMARKS
GRAND JUNCTION FAIR      43   4  19 CALM      30.49F
MONTROSE       FAIR      44   1  16 VRB6      30.51F
EAGLE          FAIR      32   9  38 SW3       30.57F
RIFLE          FAIR      43   3  19 SE3       30.50F
DELTA          FAIR      45  -1  14 SW5       30.49F
NUCLA          FAIR      41  -6  13 CALM      30.51F
$$

COZ017>023-064>068-112100-
...SOUTHWEST COLORADO...

CITY           SKY/WX    TMP DP  RH WIND       PRES   REMARKS
DURANGO        FAIR      49   2  14 VRB5      30.41F
CORTEZ         FAIR      43   2  18 SW8       30.44F
PAGOSA SPRINGS FAIR      55 -12   6 SW8       30.41F
TELLURIDE      FAIR      53   1  12 CALM      30.51F
WOLF CREEK PAS FAIR      37  -4  17 NW5       30.62F
$$

COZ009-010-012-014-032>034-037-058>063-112100-
...CENTRAL COLORADO...

CITY           SKY/WX    TMP DP  RH WIND       PRES   REMARKS
ASPEN          FAIR      48  -3  12 NW8       30.49F
BUENA VISTA    FAIR      55  -3   9 NW21G26   30.39F
COPPER MTN     NOT AVBL
BERTHOUD PASS  FAIR      21  10  63 NW43G54   30.48F HAZE    WCI   0
COTTONWOOD PAS FAIR      50 -15   6 W13G31    30.46F
GUNNISON       FAIR      36   0  21 CALM      30.52F
KREMMLING      FAIR      28  14  54 CALM      30.57F
LEADVILLE      FAIR      41  -2  16 N13G25    30.48F
MONARCH PASS   FAIR      34  -6  18 W25G36    30.65F WCI  21
SALIDA         FAIR      55  -6   8 N12       30.44F
SUNLIGHT       FAIR      34  -8  16 W7G16     30.61S WCI  28
WILKERSON PASS FAIR      41 -17   8 N8        30.52F
$$

COZ069>075-112100-
...SAN LUIS VALLEY/SANGRE DE CRISTO MOUNTAINS...

CITY           SKY/WX    TMP DP  RH WIND       PRES   REMARKS
ALAMOSA        FAIR      45  -6  11 CALM      30.43F
DEL NORTE      FAIR      44  -1  14 SE5       30.44F
LA VETA PASS   FAIR      43   0  16 SW20        N/A
SAGUACHE       FAIR      45  -4  13 S6        30.43F
$$

COZ035-036-038>040-112100-
...NORTHERN COLORADO FRONT RANGE...

CITY           SKY/WX    TMP DP  RH WIND       PRES   REMARKS
DENVER INTL AP FAIR      56   1  10 NE14G23   30.32F
DMNS CITY PARK NOT AVBL
AURORA         MOSUNNY   58  -3   8 NE15G21   30.33F
FRONT RANGE AP MOSUNNY   57   3  11 NE13G18   30.34S
ERIE MUNI ARPT FAIR      55   2  11 E5        30.37F
BOULDER MUN AP FAIR      55   9  15 E6        30.32S
CENTENNIAL     FAIR      58   4  11 NE7       30.32F
BROOMFIELD     MOSUNNY   55   7  14 E6        30.33F
FORT COLLINS   FAIR      56   7  14 SE5       30.32F
LONGMONT       FAIR      57   8  14 CALM      30.34F
$$

COZ041-046-047-076>085-087-088-112100-
...PIKES PEAK/PALMER DIVIDE AND SOUTHERN FOOTHILLS...

CITY           SKY/WX    TMP DP  RH WIND       PRES   REMARKS
COLO. SPRINGS  FAIR      57  -3   8 S9        30.33F
A. F. ACADEMY  FAIR      59  -8   6 CALM      30.32F
SCHRIEVER AFB  FAIR      56  -5   8 S12       30.33F
CHEYENNE MTN   FAIR      53  -4   9 E3        30.29F
ELLICOTT         N/A    N/A N/A N/A S10G16    30.31F
FALCON         FAIR      56  -7   7 S6        30.35F
FORT CARSON    FAIR      57  -9   6 SE10      30.30F
LIMON          FAIR      54   3  12 N21G28    30.32F
MONUMENT HILL  FAIR      52  -4  10 NE6       30.36F
CANON CITY     FAIR      66   5   9 E14       30.27F
WALSENBURG     FAIR      66   3   8 N5        30.28F
TRINIDAD       FAIR      59  -1   9 SE7       30.29F
$$

COZ042>045-048>051-090-091-112100-
...NORTHEAST COLORADO...

CITY           SKY/WX    TMP DP  RH WIND       PRES   REMARKS
GREELEY ARPT   FAIR      55   9  16 VRB3      30.31F
AKRON          FAIR      53   8  16 N26G36    30.32F
BURLINGTON     NOT AVBL
WRAY           FAIR      57   9  14 N28G46    30.28S
YUMA           FAIR      52  12  20 NW24G32   30.29F
STERLING       FAIR      54  16  22 N29G36    30.31S
HOLYOKE        FAIR      54  10  17 NW26G36   30.28S
FORT MORGAN    FAIR      56   5  12 N22G31    30.32F
$$

COZ086-089-092>099-112100-
...SOUTHEAST COLORADO...

CITY           SKY/WX    TMP DP  RH WIND       PRES   REMARKS
PUEBLO         FAIR      61  -2   8 SE13      30.28F
LA JUNTA       FAIR      59   4  11 NE8       30.30F
LAMAR          FAIR      63   7  11 N14G21    30.27F
SPRINGFIELD      N/A     59   9  13 N15       30.28F
$$




USA.gov is the U.S. government's official web portal to all federal, state and local government web resources and services.